Change the Weather History Date:

Monday, February 3, 2014

  Actual Average Record
Temperature  
Mean Temperature 41 °F -  
Max Temperature 48 °F 55 °F 75 °F (1935)
Min Temperature 34 °F 41 °F 30 °F (1989)
Degree Days  
Heating Degree Days 24    
Moisture  
Dew Point 34 °F    
Average Humidity 75    
Maximum Humidity 92    
Minimum Humidity 56    
Precipitation  
Precipitation 0.00 in - - ()
Sea Level Pressure  
Sea Level Pressure 30.12 in    
Wind  
Wind Speed 5 mph (NNW)    
Max Wind Speed 14 mph    
Max Gust Speed 21 mph    
Visibility 10 miles    
Events      
Averages and records for this station are not official NWS values.
T = Trace of Precipitation, MM = Missing Value Source: NWS Daily Summary

Daily Weather History Graph

Daily Weather History Graph

Search for Another Location

Airport or City:

Trip Planner

Search our weather history database for the weather conditions in past years. The results will help you decide how hot, cold, wet, or windy it might be!

Date:

Astronomy

Feb. 03, 2014 Rise Set
Actual Time 7:27 AM PST 5:34 PM PST
Civil Twilight 6:58 AM PST 6:04 PM PST
Nautical Twilight 6:25 AM PST 6:37 PM PST
Astronomical Twilight 5:52 AM PST 7:10 PM PST
Moon 9:28 AM PST (2/3) 10:37 PM PST (2/3)
Length of Visible Light 11h 05m
Length of Day
10h 06m
Waxing Crescent, 20% of the Moon is Illuminated
Feb 3
Waxing Crescent
Feb 6
First Quarter
Feb 14
Full
Feb 22
Last Quarter
Mar 1
New

Hourly Weather History & Observations

Time (PST) Temp. Windchill Dew Point Humidity Pressure Visibility Wind Dir Wind Speed Gust Speed Precip Events Conditions
12:56 AM 43.0 °F 39.5 °F 34.9 °F 73% 30.05 in 10.0 mi North 5.8 mph - N/A   Partly Cloudy
1:56 AM 41.9 °F 40.0 °F 34.9 °F 76% 30.06 in 10.0 mi Variable 3.5 mph - N/A   Partly Cloudy
2:56 AM 41.9 °F 39.0 °F 34.9 °F 76% 30.07 in 10.0 mi NNW 4.6 mph - N/A   Clear
3:56 AM 41.0 °F 37.1 °F 32.9 °F 73% 30.07 in 10.0 mi North 5.8 mph - N/A   Clear
4:56 AM 36.9 °F - 32.9 °F 86% 30.08 in 10.0 mi Calm Calm - N/A   Clear
5:56 AM 34.9 °F - 32.0 °F 89% 30.09 in 10.0 mi Calm Calm - N/A   Clear
6:56 AM 37.9 °F 35.5 °F 32.0 °F 79% 30.11 in 10.0 mi NW 3.5 mph - N/A   Clear
7:56 AM 34.9 °F - 32.0 °F 89% 30.12 in 10.0 mi Calm Calm - N/A   Clear
8:56 AM 43.0 °F 40.3 °F 32.0 °F 65% 30.14 in 10.0 mi NNW 4.6 mph - N/A   Clear
9:56 AM 45.9 °F 44.6 °F 32.0 °F 58% 30.16 in 10.0 mi South 3.5 mph - N/A   Clear
10:56 AM 46.9 °F - 34.9 °F 63% 30.16 in 10.0 mi Variable 6.9 mph - N/A   Partly Cloudy
11:56 AM 47.8 °F - 34.9 °F 61% 30.14 in 10.0 mi NW 8.1 mph - N/A   Partly Cloudy
12:56 PM 48.9 °F - 34.9 °F 58% 30.11 in 10.0 mi NW 9.2 mph - N/A   Partly Cloudy
1:56 PM 48.9 °F - 34.0 °F 56% 30.10 in 9.0 mi NNW 13.8 mph - N/A   Clear
2:56 PM 46.9 °F - 36.0 °F 66% 30.10 in 9.0 mi NW 12.7 mph - N/A   Clear
3:56 PM 45.9 °F 39.7 °F 34.9 °F 66% 30.11 in 10.0 mi NW 13.8 mph 19.6 mph N/A   Clear
4:56 PM 45.0 °F 38.9 °F 36.0 °F 71% 30.11 in 9.0 mi NNW 12.7 mph 20.7 mph N/A   Clear
5:56 PM 43.0 °F 40.3 °F 34.9 °F 73% 30.13 in 9.0 mi Variable 4.6 mph - N/A   Clear
6:56 PM 38.8 °F 36.5 °F 34.0 °F 83% 30.14 in 10.0 mi East 3.5 mph - N/A   Clear
7:56 PM 37.9 °F - 32.9 °F 82% 30.15 in 10.0 mi Calm Calm - N/A   Clear
8:56 PM 36.0 °F 33.3 °F 32.0 °F 86% 30.17 in 10.0 mi NE 3.5 mph - N/A   Clear
9:56 PM 36.0 °F 33.3 °F 32.9 °F 89% 30.16 in 10.0 mi NNE 3.5 mph - N/A   Clear
10:56 PM 34.9 °F - 32.0 °F 89% 30.17 in 10.0 mi Calm Calm - N/A   Clear
11:56 PM 34.0 °F - 32.0 °F 92% 30.17 in 10.0 mi Calm Calm - N/A   Clear